This is the latest recevied weather packets stored in our database for station/object KV4OP. If no packets are shown the sender has not sent any weather packets the latest 10 day(s).
| Time | Temp. | Humidity | Pressure | Rain* | Wind** | Luminosity | Snow |
|---|---|---|---|---|---|---|---|
| 1788567008 | 25° C | 95% | 1015.6 hPa | 0 mm | - | - | - |
| 1788566707 | 25.56° C | 95% | 1015.6 hPa | 0 mm | - | - | - |
| 1788566419 | 25.56° C | 95% | 1015.5 hPa | 0 mm | - | - | - |
| 1788566107 | 25.56° C | 95% | 1015.6 hPa | 0 mm | - | - | - |
| 1788565811 | 25.56° C | 95% | 1015.8 hPa | 0 mm | - | - | - |
| 1788565507 | 25.56° C | 94% | 1015.8 hPa | 0 mm | - | - | - |
| 1788565218 | 25.56° C | 94% | 1015.8 hPa | 0 mm | - | - | - |
| 1788564908 | 25.56° C | 94% | 1015.8 hPa | 0 mm | - | - | - |
| 1788564607 | 25.56° C | 94% | 1015.8 hPa | 0.25 mm | - | - | - |
| 1788564308 | 25.56° C | 94% | 1015.8 hPa | 0.25 mm | - | - | - |
| 1788564016 | 25.56° C | 93% | 1015.7 hPa | 0.25 mm | - | - | - |
| 1788563708 | 25.56° C | 93% | 1015.6 hPa | 0.25 mm | - | - | - |
| 1788563408 | 25.56° C | 93% | 1015.5 hPa | 0.25 mm | - | - | - |
| 1788563108 | 26.11° C | 93% | 1015.6 hPa | 0.25 mm | - | - | - |
| 1788562819 | 26.11° C | 93% | 1015.7 hPa | 0.51 mm | - | - | - |
| 1788562508 | 26.67° C | 93% | 1015.8 hPa | 0.51 mm | - | - | - |
| 1788562208 | 26.67° C | 93% | 1015.7 hPa | 0.51 mm | - | - | - |
| 1788561928 | 26.67° C | 93% | 1015.8 hPa | 0.51 mm | - | - | - |
| 1788561625 | 26.67° C | 93% | 1015.6 hPa | 0.51 mm | - | - | - |
| 1788561310 | 27.22° C | 93% | 1015.7 hPa | 0.25 mm | - | - | - |
| 1788561020 | 27.22° C | 93% | 1015.6 hPa | 0.25 mm | - | - | - |
| 1788560723 | 27.22° C | 93% | 1015.4 hPa | 0.25 mm | - | - | - |
| 1788560423 | 27.22° C | 94% | 1015.5 hPa | 0.76 mm | - | - | - |
| 1788560108 | 27.22° C | 94% | 1015.5 hPa | 2.29 mm | - | - | - |
| 1788559812 | 27.22° C | 94% | 1015.1 hPa | 2.54 mm | - | - | - |
* Rain latest hour (hover to see other rain measurements)
** Current wind speed in m/s (hover to see current wind gust speed)